Location: Newark
(44.2003°N, 3.2583°E)
Time: 22:05:39
(UTC+00:00)

Envisat - Pass Details

Date: 23 September 2019
Orbit: 764 x 766 km, 98.1° (Epoch: 15 October)

Event Time Altitude Azimuth Distance (km) Brightness Sun altitude
Rises 19:11:36 0° 209° (SSW) 3,220 6.4 -16.4°
Reaches altitude 10° 19:14:42 10° 230° (SW) 2,299 5.9 -17.0°
Maximum altitude 19:17:57 17° 270° (W) 1,865 6.0 -17.5°
Drops below altitude 10° 19:21:13 10° 310° (NW) 2,310 6.5 -18.1°
Sets 19:24:21 0° 331° (NNW) 3,242 7.0 -18.6°
